Location: Binningen
(47.7924°N, 8.7261°E)
Time: 13:26:13
(UTC+00:00)

CZ-4C R/B - Pass Details

Date: 17 May 2021
Orbit: 609 x 1393 km, 63.4° (Epoch: 19 June)

Event Time Altitude Azimuth Distance (km) Brightness Sun altitude
Rises 20:11:48 0° 314° (NW) 3,905 8.0 -10.4°
Reaches altitude 10° 20:14:33 10° 306° (NW) 3,055 6.6 -10.7°
Maximum altitude 20:21:09 35° 244° (WSW) 1,935 4.2 -11.5°
Drops below altitude 10° 20:28:31 10° 183° (S) 3,417 4.9 -12.3°
Enters shadow 20:30:15 - 179° (S) 3,941 5.2 -12.5°
